QPF
0.02 0.01 0.05 0.08 0.09 0.11 0.10 0.12 0.13 0.13 0.12 0.11 0.09 0.08 0.07 0.06 0.05 0.03 0.03 0.02 0.02 0.01 0.01 0.01 0.00 0.01 0.01 0.01 0.00 0.00 0.00 0.00 0.00 0.00 0.01 0.01 0.01 0.02 0.02 0.02 0.02 0.03 0.03
0.03 0.02 0.06 0.11 0.12 0.12 0.13 0.15 0.15 0.15 0.15 0.14 0.11 0.10 0.10 0.09 0.07 0.06 0.04 0.03 0.02 0.02 0.02 0.02 0.01 0.00 0.01 0.01 0.00 0.00 0.00 0.00 0.00 0.01 0.01 0.01 0.02 0.02 0.02 0.02 0.02 0.04 0.02
0.05 0.04 0.10 0.13 0.14 0.14 0.16 0.18 0.16 0.14 0.15 0.14 0.13 0.12 0.12 0.11 0.09 0.08 0.06 0.04 0.03 0.03 0.03 0.02 0.02 0.01 0.01 0.00 0.00 0.00 0.01 0.01 0.01 0.02 0.02 0.02 0.02 0.02 0.02 0.03 0.02 0.04 0.02
0.05 0.06 0.09 0.15 0.17 0.18 0.19 0.18 0.19 0.16 0.14 0.13 0.13 0.13 0.12 0.11 0.11 0.11 0.10 0.09 0.06 0.04 0.03 0.03 0.03 0.02 0.01 0.00 0.00 0.00 0.01 0.01 0.01 0.02 0.02 0.02 0.01 0.02 0.02 0.03 0.02 0.04 0.05
0.04 0.05 0.08 0.11 0.13 0.15 0.17 0.22 0.24 0.21 0.17 0.15 0.15 0.14 0.14 0.15 0.15 0.15 0.15 0.16 0.13 0.09 0.06 0.05 0.05 0.04 0.04 0.02 0.01 0.00 0.01 0.01 0.01 0.01 0.03 0.03 0.04 0.04 0.03 0.03 0.02 0.03 0.05
0.03 0.03 0.04 0.06 0.07 0.10 0.13 0.14 0.19 0.20 0.18 0.16 0.17 0.18 0.18 0.19 0.20 0.21 0.20 0.19 0.19 0.16 0.13 0.10 0.08 0.08 0.07 0.05 0.02 0.01 0.01 0.01 0.01 0.02 0.03 0.03 0.04 0.04 0.04 0.03 0.03 0.03 0.04
0.01 0.01 0.02 0.04 0.03 0.04 0.06 0.08 0.11 0.15 0.18 0.19 0.16 0.16 0.19 0.22 0.25 0.25 0.23 0.22 0.22 0.21 0.19 0.18 0.14 0.12 0.10 0.07 0.05 0.03 0.02 0.01 0.02 0.02 0.02 0.04 0.05 0.04 0.05 0.03 0.03 0.02 0.03
0.01 0.01 0.02 0.03 0.03 0.03 0.03 0.04 0.05 0.07 0.14 0.21 0.19 0.16 0.15 0.16 0.19 0.22 0.24 0.23 0.23 0.22 0.23 0.25 0.22 0.17 0.14 0.10 0.07 0.06 0.04 0.02 0.02 0.03 0.02 0.04 0.04 0.05 0.07 0.05 0.04 0.02 0.02
0.01 0.01 0.01 0.01 0.01 0.01 0.02 0.02 0.02 0.05 0.08 0.16 0.23 0.19 0.15 0.14 0.15 0.17 0.19 0.20 0.22 0.24 0.24 0.23 0.22 0.19 0.17 0.13 0.09 0.08 0.07 0.04 0.02 0.04 0.02 0.03 0.03 0.05 0.08 0.07 0.06 0.03 0.03
0.00 0.00 0.00 0.00 0.00 0.00 0.00 0.01 0.01 0.02 0.05 0.11 0.18 0.18 0.16 0.16 0.16 0.14 0.15 0.17 0.20 0.22 0.23 0.23 0.24 0.23 0.18 0.15 0.11 0.09 0.07 0.04 0.02 0.03 0.04 0.03 0.03 0.04 0.08 0.08 0.06 0.05 0.04
0.00 0.00 0.00 0.00 0.00 0.00 0.00 0.00 0.00 0.00 0.01 0.02 0.05 0.08 0.09 0.11 0.11 0.11 0.10 0.13 0.16 0.20 0.22 0.23 0.24 0.25 0.20 0.17 0.13 0.11 0.09 0.05 0.03 0.03 0.04 0.03 0.04 0.05 0.09 0.10 0.07 0.06 0.05
0.00 0.00 0.00 0.00 0.00 0.00 0.00 0.00 0.00 0.00 0.00 0.00 0.01 0.01 0.02 0.03 0.07 0.08 0.08 0.08 0.11 0.17 0.20 0.21 0.23 0.23 0.19 0.16 0.14 0.12 0.09 0.06 0.04 0.04 0.03 0.03 0.05 0.07 0.07 0.09 0.08 0.06 0.05
0.00 0.00 0.00 0.00 0.00 0.00 0.00 0.00 0.00 0.00 0.00 0.00 0.00 0.01 0.01 0.01 0.01 0.02 0.04 0.05 0.06 0.10 0.12 0.13 0.16 0.16 0.15 0.14 0.12 0.10 0.08 0.07 0.05 0.03 0.02 0.03 0.05 0.08 0.07 0.09 0.09 0.08 0.06
0.00 0.00 0.00 0.00 0.00 0.00 0.00 0.00 0.00 0.00 0.00 0.00 0.00 0.00 0.01 0.01 0.01 0.01 0.01 0.02 0.03 0.05 0.09 0.09 0.10 0.13 0.13 0.13 0.11 0.09 0.08 0.08 0.06 0.05 0.04 0.02 0.04 0.08 0.09 0.09 0.10 0.09 0.06
0.00 0.00 0.00 0.00 0.00 0.00 0.00 0.00 0.00 0.00 0.00 0.00 0.00 0.00 0.01 0.01 0.01 0.01 0.01 0.02 0.02 0.04 0.06 0.08 0.10 0.10 0.11 0.12 0.11 0.09 0.08 0.07 0.05 0.05 0.04 0.02 0.04 0.08 0.11 0.08 0.10 0.10 0.06
0.00 0.00 0.00 0.00 0.00 0.00 0.00 0.00 0.00 0.00 0.00 0.00 0.00 0.00 0.00 0.01 0.01 0.01 0.01 0.02 0.02 0.02 0.04 0.06 0.09 0.09 0.08 0.09 0.11 0.09 0.08 0.07 0.06 0.04 0.04 0.03 0.02 0.05 0.09 0.09 0.11 0.11 0.09
0.00 0.00 0.00 0.00 0.00 0.00 0.00 0.00 0.00 0.00 0.00 0.00 0.00 0.00 0.00 0.00 0.00 0.01 0.01 0.01 0.01 0.02 0.02 0.05 0.05 0.07 0.06 0.07 0.09 0.09 0.08 0.08 0.07 0.06 0.06 0.06 0.05 0.03 0.06 0.09 0.11 0.12 0.11
0.00 0.00 0.00 0.00 0.00 0.00 0.00 0.00 0.00 0.00 0.00 0.00 0.00 0.00 0.00 0.00 0.00 0.01 0.01 0.01 0.01 0.02 0.02 0.03 0.04 0.05 0.05 0.05 0.07 0.09 0.08 0.08 0.07 0.07 0.07 0.06 0.06 0.05 0.05 0.07 0.10 0.11 0.11
0.00 0.00 0.00 0.00 0.00 0.00 0.00 0.00 0.00 0.00 0.00 0.00 0.00 0.00 0.00 0.00 0.00 0.01 0.01 0.01 0.01 0.02 0.03 0.02 0.03 0.05 0.05 0.05 0.05 0.08 0.08 0.08 0.07 0.06 0.05 0.05 0.05 0.06 0.07 0.06 0.07 0.10 0.10
0.00 0.00 0.00 0.00 0.00 0.00 0.00 0.00 0.00 0.00 0.00 0.00 0.00 0.00 0.00 0.00 0.00 0.01 0.01 0.02 0.02 0.02 0.03 0.03 0.04 0.04 0.05 0.06 0.05 0.05 0.07 0.07 0.07 0.06 0.07 0.06 0.06 0.04 0.05 0.05 0.07 0.08 0.08
0.00 0.00 0.00 0.00 0.00 0.00 0.00 0.00 0.00 0.00 0.00 0.00 0.01 0.01 0.00 0.00 0.00 0.01 0.02 0.03 0.03 0.03 0.03 0.03 0.02 0.03 0.04 0.06 0.05 0.05 0.06 0.05 0.06 0.07 0.06 0.07 0.05 0.05 0.05 0.06 0.06 0.06 0.07
0.00 0.00 0.00 0.00 0.00 0.00 0.00 0.00 0.00 0.00 0.00 0.00 0.00 0.01 0.00 0.00 0.00 0.01 0.01 0.02 0.02 0.03 0.03 0.03 0.02 0.03 0.05 0.07 0.08 0.07 0.08 0.08 0.06 0.05 0.05 0.06 0.06 0.08 0.06 0.04 0.05 0.06 0.05
0.00 0.00 0.00 0.00 0.00 0.00 0.00 0.00 0.00 0.00 0.00 0.00 0.00 0.00 0.00 0.01 0.01 0.02 0.02 0.02 0.02 0.03 0.03 0.02 0.02 0.03 0.04 0.05 0.08 0.09 0.10 0.11 0.07 0.05 0.04 0.04 0.05 0.08 0.08 0.06 0.06 0.06 0.05
0.00 0.00 0.00 0.00 0.00 0.00 0.00 0.00 0.00 0.00 0.00 0.00 0.00 0.00 0.00 0.01 0.01 0.01 0.01 0.01 0.01 0.02 0.02 0.01 0.01 0.02 0.03 0.04 0.04 0.05 0.08 0.11 0.10 0.08 0.05 0.04 0.04 0.06 0.07 0.06 0.06 0.07 0.08
0.00 0.00 0.00 0.00 0.00 0.00 0.00 0.00 0.00 0.00 0.00 0.00 0.00 0.00 0.00 0.01 0.00 0.00 0.00 0.01 0.01 0.01 0.02 0.01 0.01 0.02 0.02 0.03 0.03 0.03 0.05 0.07 0.08 0.10 0.08 0.05 0.04 0.05 0.06 0.06 0.06 0.07 0.09
0.00 0.00 0.00 0.00 0.00 0.00 0.00 0.00 0.00 0.00 0.00 0.00 0.00 0.00 0.00 0.01 0.00 0.00 0.00 0.00 0.00 0.01 0.01 0.01 0.01 0.01 0.02 0.02 0.03 0.03 0.05 0.06 0.07 0.08 0.09 0.06 0.05 0.04 0.06 0.06 0.05 0.05 0.07
MSLP
1012.76 1012.42 1012.23 1012.23 1012.40 1012.70 1013.02 1013.28 1013.43 1013.43 1013.33 1013.17 1013.03 1012.96 1012.99 1013.11 1013.28 1013.45 1013.57 1013.63 1013.61 1013.54 1013.46 1013.39 1013.36 1013.37 1013.39 1013.40 1013.37 1013.30 1013.18 1013.05 1012.93 1012.85 1012.82 1012.84 1012.89 1012.93 1012.96 1012.94 1012.90 1012.84 1012.80
1012.78 1012.44 1012.27 1012.31 1012.53 1012.87 1013.23 1013.53 1013.70 1013.72 1013.62 1013.46 1013.30 1013.21 1013.21 1013.28 1013.41 1013.54 1013.63 1013.66 1013.64 1013.59 1013.54 1013.53 1013.55 1013.60 1013.65 1013.67 1013.63 1013.52 1013.36 1013.18 1013.03 1012.92 1012.89 1012.92 1012.99 1013.07 1013.12 1013.14 1013.11 1013.05 1013.00
1012.75 1012.44 1012.31 1012.39 1012.66 1013.04 1013.44 1013.76 1013.95 1013.99 1013.89 1013.73 1013.56 1013.44 1013.39 1013.41 1013.47 1013.54 1013.58 1013.59 1013.57 1013.55 1013.56 1013.61 1013.71 1013.82 1013.91 1013.94 1013.89 1013.74 1013.53 1013.29 1013.08 1012.94 1012.89 1012.93 1013.02 1013.13 1013.23 1013.28 1013.28 1013.24 1013.18
1012.72 1012.45 1012.37 1012.51 1012.82 1013.23 1013.65 1013.98 1014.17 1014.21 1014.11 1013.94 1013.76 1013.61 1013.52 1013.49 1013.48 1013.48 1013.47 1013.45 1013.43 1013.44 1013.51 1013.65 1013.83 1014.01 1014.16 1014.21 1014.14 1013.96 1013.69 1013.38 1013.11 1012.93 1012.85 1012.89 1013.00 1013.14 1013.28 1013.37 1013.40 1013.39 1013.36
1012.71 1012.51 1012.49 1012.68 1013.02 1013.44 1013.84 1014.15 1014.32 1014.35 1014.24 1014.07 1013.88 1013.72 1013.60 1013.51 1013.45 1013.39 1013.32 1013.27 1013.26 1013.31 1013.44 1013.65 1013.92 1014.18 1014.37 1014.44 1014.37 1014.15 1013.82 1013.46 1013.13 1012.90 1012.79 1012.82 1012.94 1013.11 1013.29 1013.42 1013.49 1013.51 1013.50
1012.76 1012.63 1012.68 1012.91 1013.26 1013.65 1014.01 1014.27 1014.40 1014.39 1014.27 1014.10 1013.91 1013.74 1013.61 1013.49 1013.38 1013.27 1013.17 1013.09 1013.08 1013.16 1013.34 1013.62 1013.96 1014.28 1014.52 1014.62 1014.54 1014.29 1013.93 1013.52 1013.14 1012.87 1012.74 1012.76 1012.88 1013.07 1013.28 1013.44 1013.55 1013.60 1013.62
1012.88 1012.83 1012.94 1013.19 1013.52 1013.86 1014.15 1014.33 1014.39 1014.33 1014.19 1014.02 1013.85 1013.70 1013.56 1013.43 1013.30 1013.16 1013.02 1012.93 1012.91 1013.00 1013.22 1013.55 1013.93 1014.30 1014.58 1014.69 1014.62 1014.37 1013.99 1013.56 1013.16 1012.87 1012.72 1012.72 1012.85 1013.05 1013.27 1013.45 1013.58 1013.66 1013.70
1013.08 1013.11 1013.25 1013.50 1013.78 1014.04 1014.23 1014.32 1014.30 1014.19 1014.03 1013.87 1013.72 1013.59 1013.48 1013.36 1013.21 1013.05 1012.89 1012.77 1012.74 1012.83 1013.06 1013.41 1013.82 1014.22 1014.52 1014.65 1014.60 1014.37 1014.00 1013.57 1013.18 1012.88 1012.73 1012.73 1012.86 1013.05 1013.27 1013.46 1013.60 1013.69 1013.73
1013.34 1013.42 1013.58 1013.81 1014.03 1014.20 1014.28 1014.26 1014.16 1014.00 1013.83 1013.68 1013.55 1013.46 1013.37 1013.26 1013.12 1012.95 1012.76 1012.61 1012.56 1012.63 1012.85 1013.19 1013.60 1014.01 1014.32 1014.48 1014.46 1014.27 1013.94 1013.55 1013.19 1012.92 1012.78 1012.78 1012.89 1013.08 1013.28 1013.46 1013.60 1013.69 1013.74
1013.61 1013.73 1013.91 1014.09 1014.24 1014.32 1014.30 1014.19 1014.01 1013.81 1013.62 1013.48 1013.38 1013.32 1013.25 1013.16 1013.01 1012.82 1012.62 1012.44 1012.35 1012.39 1012.57 1012.89 1013.28 1013.68 1014.01 1014.20 1014.22 1014.08 1013.82 1013.50 1013.19 1012.96 1012.84 1012.84 1012.95 1013.11 1013.29 1013.45 1013.58 1013.66 1013.71
1013.86 1014.01 1014.18 1014.32 1014.41 1014.40 1014.29 1014.11 1013.88 1013.65 1013.46 1013.32 1013.24 1013.19 1013.14 1013.05 1012.89 1012.68 1012.45 1012.24 1012.11 1012.11 1012.25 1012.53 1012.89 1013.28 1013.61 1013.84 1013.91 1013.84 1013.66 1013.41 1013.17 1012.99 1012.90 1012.90 1012.99 1013.12 1013.28 1013.42 1013.53 1013.61 1013.67
1014.05 1014.21 1014.37 1014.48 1014.51 1014.44 1014.28 1014.05 1013.79 1013.55 1013.35 1013.22 1013.15 1013.10 1013.04 1012.93 1012.76 1012.52 1012.26 1012.02 1011.86 1011.81 1011.91 1012.14 1012.48 1012.84 1013.18 1013.43 1013.56 1013.57 1013.47 1013.31 1013.14 1013.00 1012.93 1012.92 1012.99 1013.09 1013.22 1013.33 1013.44 1013.52 1013.60
1014.16 1014.33 1014.47 1014.55 1014.55 1014.45 1014.26 1014.02 1013.76 1013.52 1013.33 1013.19 1013.11 1013.04 1012.95 1012.82 1012.61 1012.35 1012.06 1011.80 1011.60 1011.52 1011.58 1011.77 1012.07 1012.42 1012.76 1013.03 1013.22 1013.29 1013.27 1013.19 1013.08 1012.97 1012.91 1012.89 1012.92 1012.99 1013.08 1013.19 1013.29 1013.40 1013.51
1014.18 1014.35 1014.48 1014.55 1014.53 1014.43 1014.25 1014.03 1013.78 1013.56 1013.37 1013.23 1013.12 1013.02 1012.89 1012.71 1012.47 1012.19 1011.88 1011.59 1011.37 1011.27 1011.29 1011.45 1011.71 1012.03 1012.37 1012.67 1012.90 1013.04 1013.08 1013.06 1012.99 1012.90 1012.83 1012.78 1012.78 1012.81 1012.87 1012.97 1013.09 1013.23 1013.38
1014.13 1014.29 1014.41 1014.48 1014.47 1014.39 1014.25 1014.06 1013.86 1013.66 1013.48 1013.32 1013.17 1013.02 1012.85 1012.63 1012.36 1012.05 1011.72 1011.43 1011.20 1011.07 1011.06 1011.18 1011.41 1011.71 1012.04 1012.35 1012.61 1012.79 1012.89 1012.91 1012.87 1012.78 1012.69 1012.61 1012.55 1012.54 1012.59 1012.68 1012.83 1013.01 1013.23
1014.01 1014.17 1014.29 1014.37 1014.38 1014.35 1014.25 1014.12 1013.96 1013.79 1013.61 1013.44 1013.25 1013.06 1012.83 1012.57 1012.27 1011.95 1011.62 1011.32 1011.09 1010.94 1010.91 1010.99 1011.17 1011.44 1011.75 1012.06 1012.34 1012.56 1012.70 1012.74 1012.71 1012.62 1012.50 1012.38 1012.28 1012.23 1012.25 1012.34 1012.52 1012.75 1013.03
1013.87 1014.02 1014.14 1014.23 1014.29 1014.30 1014.27 1014.19 1014.08 1013.94 1013.77 1013.57 1013.35 1013.11 1012.84 1012.54 1012.23 1011.90 1011.58 1011.28 1011.04 1010.88 1010.81 1010.84 1010.98 1011.21 1011.49 1011.80 1012.09 1012.33 1012.49 1012.56 1012.54 1012.44 1012.29 1012.12 1011.98 1011.89 1011.89 1011.99 1012.18 1012.46 1012.79
1013.73 1013.87 1014.00 1014.11 1014.20 1014.27 1014.30 1014.28 1014.21 1014.09 1013.92 1013.71 1013.46 1013.18 1012.87 1012.56 1012.24 1011.91 1011.60 1011.31 1011.06 1010.87 1010.76 1010.74 1010.82 1011.00 1011.24 1011.53 1011.82 1012.08 1012.27 1012.37 1012.36 1012.25 1012.08 1011.88 1011.70 1011.58 1011.56 1011.65 1011.86 1012.17 1012.54
1013.59 1013.74 1013.87 1014.01 1014.14 1014.26 1014.34 1014.38 1014.35 1014.25 1014.08 1013.85 1013.57 1013.27 1012.95 1012.62 1012.30 1011.98 1011.68 1011.39 1011.13 1010.91 1010.75 1010.67 1010.69 1010.80 1011.01 1011.27 1011.57 1011.84 1012.06 1012.18 1012.19 1012.09 1011.91 1011.69 1011.48 1011.33 1011.29 1011.37 1011.57 1011.89 1012.28
1013.48 1013.63 1013.78 1013.95 1014.12 1014.28 1014.41 1014.49 1014.49 1014.41 1014.24 1014.00 1013.71 1013.38 1013.05 1012.73 1012.42 1012.11 1011.82 1011.53 1011.25 1011.00 1010.79 1010.64 1010.59 1010.65 1010.81 1011.05 1011.34 1011.62 1011.86 1012.01 1012.05 1011.97 1011.79 1011.57 1011.34 1011.17 1011.11 1011.16 1011.35 1011.66 1012.04
1013.37 1013.54 1013.72 1013.92 1014.13 1014.33 1014.50 1014.62 1014.64 1014.57 1014.41 1014.16 1013.86 1013.53 1013.20 1012.89 1012.59 1012.30 1012.02 1011.73 1011.43 1011.14 1010.88 1010.68 1010.56 1010.56 1010.67 1010.88 1011.16 1011.46 1011.72 1011.90 1011.97 1011.91 1011.75 1011.53 1011.30 1011.12 1011.02 1011.05 1011.21 1011.48 1011.83
1013.25 1013.46 1013.68 1013.91 1014.16 1014.40 1014.60 1014.74 1014.79 1014.73 1014.57 1014.33 1014.03 1013.71 1013.39 1013.09 1012.81 1012.54 1012.27 1011.98 1011.68 1011.36 1011.06 1010.80 1010.63 1010.57 1010.64 1010.82 1011.08 1011.37 1011.65 1011.85 1011.94 1011.91 1011.78 1011.57 1011.34 1011.14 1011.03 1011.02 1011.14 1011.36 1011.67
1013.13 1013.38 1013.63 1013.90 1014.18 1014.46 1014.69 1014.85 1014.92 1014.88 1014.73 1014.50 1014.21 1013.90 1013.60 1013.32 1013.06 1012.81 1012.56 1012.28 1011.97 1011.64 1011.31 1011.02 1010.81 1010.70 1010.73 1010.87 1011.10 1011.38 1011.65 1011.86 1011.97 1011.96 1011.85 1011.66 1011.44 1011.23 1011.10 1011.06 1011.12 1011.29 1011.54
1012.98 1013.28 1013.57 1013.88 1014.19 1014.48 1014.74 1014.92 1015.01 1014.98 1014.85 1014.64 1014.37 1014.08 1013.80 1013.55 1013.31 1013.09 1012.86 1012.60 1012.30 1011.98 1011.64 1011.34 1011.10 1010.95 1010.94 1011.03 1011.23 1011.47 1011.72 1011.92 1012.03 1012.04 1011.94 1011.76 1011.55 1011.35 1011.20 1011.13 1011.15 1011.26 1011.45
1012.81 1013.15 1013.48 1013.81 1014.13 1014.45 1014.72 1014.92 1015.02 1015.02 1014.92 1014.73 1014.49 1014.23 1013.98 1013.75 1013.54 1013.35 1013.15 1012.91 1012.65 1012.34 1012.02 1011.72 1011.46 1011.30 1011.24 1011.29 1011.43 1011.62 1011.83 1012.00 1012.10 1012.10 1012.02 1011.86 1011.67 1011.47 1011.31 1011.21 1011.19 1011.25 1011.38
1012.63 1012.99 1013.34 1013.68 1014.01 1014.33 1014.61 1014.82 1014.95 1014.97 1014.90 1014.75 1014.54 1014.32 1014.10 1013.90 1013.72 1013.56 1013.39 1013.19 1012.96 1012.69 1012.40 1012.12 1011.86 1011.68 1011.58 1011.58 1011.66 1011.79 1011.94 1012.07 1012.15 1012.15 1012.07 1011.93 1011.76 1011.58 1011.42 1011.30 1011.24 1011.25 1011.32
Thickness
5778 5777 5771 5769 5767 5765 5763 5762 5760 5759 5758 5757 5757 5757 5757 5757 5757 5757 5757 5757 5757 5758 5758 5758 5759 5760 5760 5761 5761 5762 5763 5764 5765 5767 5768 5769 5769 5770 5770 5770 5771 5773 5770
5778 5774 5767 5765 5763 5762 5760 5759 5757 5756 5754 5754 5753 5754 5753 5753 5753 5753 5753 5753 5754 5754 5755 5755 5756 5756 5757 5758 5758 5759 5760 5761 5762 5764 5765 5766 5767 5768 5768 5769 5770 5771 5769
5774 5770 5765 5761 5759 5758 5756 5755 5753 5752 5751 5750 5750 5750 5750 5750 5750 5749 5749 5750 5750 5751 5751 5752 5752 5753 5754 5754 5755 5756 5757 5758 5760 5761 5763 5767 5767 5766 5766 5767 5767 5768 5767
5769 5766 5762 5757 5755 5754 5752 5751 5749 5748 5747 5746 5746 5746 5746 5746 5746 5746 5746 5747 5747 5748 5748 5749 5749 5750 5751 5752 5752 5754 5755 5756 5757 5759 5764 5767 5767 5764 5764 5765 5765 5766 5766
5763 5760 5756 5752 5750 5749 5747 5745 5744 5743 5743 5742 5742 5742 5742 5742 5742 5742 5743 5743 5744 5744 5745 5745 5746 5747 5748 5749 5750 5751 5752 5753 5755 5758 5763 5763 5764 5762 5762 5763 5763 5764 5764
5758 5755 5750 5746 5744 5743 5742 5740 5740 5739 5739 5738 5738 5738 5738 5738 5738 5738 5739 5740 5740 5741 5741 5742 5743 5744 5745 5746 5747 5748 5750 5751 5753 5759 5760 5761 5762 5760 5760 5761 5761 5762 5763
5754 5749 5745 5741 5739 5738 5737 5735 5735 5734 5734 5733 5733 5733 5733 5734 5734 5734 5735 5735 5736 5737 5738 5738 5738 5740 5741 5743 5744 5746 5747 5749 5754 5757 5758 5759 5759 5758 5758 5759 5760 5760 5761
5749 5745 5741 5736 5734 5732 5731 5730 5729 5729 5728 5728 5728 5728 5728 5729 5730 5730 5731 5731 5732 5733 5734 5735 5735 5736 5738 5739 5741 5743 5745 5746 5753 5757 5757 5758 5757 5756 5757 5757 5758 5759 5759
5744 5741 5738 5735 5732 5729 5727 5725 5724 5723 5723 5723 5723 5722 5722 5723 5725 5726 5727 5727 5728 5729 5730 5731 5732 5733 5734 5736 5738 5740 5742 5744 5749 5754 5756 5757 5755 5754 5755 5756 5756 5757 5758
5740 5737 5735 5732 5729 5728 5726 5722 5720 5718 5718 5717 5717 5717 5717 5718 5720 5721 5722 5722 5723 5725 5727 5728 5729 5730 5731 5733 5735 5737 5740 5742 5748 5753 5755 5756 5753 5753 5754 5754 5755 5755 5756
5737 5735 5732 5729 5726 5723 5722 5719 5717 5715 5714 5713 5714 5713 5713 5716 5718 5718 5717 5717 5719 5721 5723 5724 5725 5727 5728 5730 5733 5735 5737 5744 5748 5751 5753 5752 5750 5751 5752 5753 5753 5754 5754
5734 5733 5731 5728 5724 5722 5720 5717 5715 5715 5712 5712 5711 5711 5711 5711 5712 5712 5711 5712 5714 5717 5719 5720 5722 5724 5725 5729 5731 5733 5738 5742 5745 5749 5751 5749 5748 5750 5751 5751 5752 5752 5753
5734 5731 5729 5727 5723 5720 5718 5715 5713 5711 5709 5709 5707 5706 5705 5706 5708 5709 5710 5711 5712 5713 5716 5718 5720 5722 5723 5726 5729 5733 5736 5740 5743 5747 5750 5747 5747 5748 5749 5750 5750 5751 5752
5732 5729 5727 5724 5723 5719 5716 5713 5710 5709 5706 5705 5703 5702 5702 5702 5702 5704 5705 5707 5708 5710 5711 5713 5716 5719 5721 5724 5727 5730 5734 5736 5739 5743 5746 5745 5745 5747 5748 5748 5749 5749 5750
5731 5728 5726 5722 5720 5717 5713 5709 5709 5705 5703 5702 5698 5697 5696 5697 5697 5699 5701 5701 5704 5705 5708 5709 5712 5716 5718 5721 5724 5727 5731 5734 5737 5741 5744 5743 5744 5745 5746 5747 5747 5747 5748
5731 5728 5725 5721 5718 5714 5712 5709 5706 5703 5699 5698 5695 5694 5692 5692 5692 5693 5695 5696 5698 5700 5702 5705 5708 5710 5714 5717 5720 5724 5727 5730 5734 5738 5741 5742 5742 5743 5744 5745 5746 5747 5748
5732 5729 5724 5720 5716 5712 5709 5706 5703 5700 5697 5695 5692 5690 5689 5688 5688 5688 5689 5691 5693 5694 5697 5700 5704 5706 5709 5713 5716 5720 5724 5727 5730 5736 5739 5741 5743 5743 5743 5744 5745 5746 5747
5733 5728 5724 5719 5715 5710 5706 5702 5701 5698 5694 5692 5689 5686 5685 5684 5683 5683 5683 5685 5686 5689 5692 5694 5698 5700 5704 5708 5712 5717 5722 5724 5727 5731 5735 5738 5741 5744 5744 5743 5744 5745 5746
5733 5728 5723 5718 5713 5709 5704 5701 5698 5695 5691 5689 5686 5683 5681 5680 5679 5680 5679 5680 5682 5684 5687 5690 5694 5696 5699 5702 5707 5712 5718 5721 5725 5728 5732 5736 5740 5741 5744 5742 5742 5743 5744
5732 5728 5722 5716 5712 5708 5704 5701 5696 5693 5690 5686 5683 5679 5676 5676 5675 5676 5676 5677 5678 5680 5682 5685 5687 5690 5694 5697 5703 5709 5714 5718 5722 5725 5728 5733 5736 5740 5742 5743 5742 5742 5743
5731 5727 5721 5716 5711 5706 5702 5698 5694 5691 5687 5684 5681 5676 5674 5673 5672 5673 5674 5674 5675 5677 5678 5681 5684 5686 5689 5694 5697 5702 5709 5715 5720 5722 5725 5729 5733 5736 5739 5741 5742 5743 5743
5730 5726 5721 5716 5711 5706 5700 5697 5693 5688 5686 5683 5679 5676 5673 5672 5671 5672 5672 5672 5673 5673 5675 5677 5678 5681 5684 5689 5691 5694 5698 5704 5711 5719 5722 5725 5729 5732 5735 5739 5741 5742 5743
5730 5725 5720 5716 5711 5705 5701 5697 5692 5689 5686 5683 5679 5676 5673 5671 5670 5669 5669 5670 5671 5672 5673 5673 5676 5676 5679 5684 5689 5689 5691 5695 5703 5711 5717 5721 5724 5727 5731 5736 5739 5741 5742
5731 5726 5722 5716 5712 5706 5701 5697 5692 5687 5684 5681 5678 5676 5675 5672 5670 5668 5668 5669 5670 5670 5671 5673 5674 5675 5675 5678 5683 5687 5691 5693 5694 5699 5708 5716 5720 5722 5726 5730 5734 5737 5739
5732 5726 5721 5716 5711 5706 5701 5695 5691 5688 5685 5682 5679 5677 5675 5673 5671 5669 5668 5668 5669 5669 5669 5670 5671 5672 5674 5675 5678 5682 5686 5689 5694 5694 5697 5705 5712 5717 5721 5725 5729 5732 5735
5731 5725 5720 5714 5710 5705 5700 5696 5692 5687 5684 5681 5678 5676 5675 5674 5672 5670 5668 5668 5668 5668 5668 5668 5669 5671 5672 5674 5676 5679 5681 5683 5687 5690 5692 5697 5702 5710 5715 5720 5723 5726 5729